Time,TemperatureF,DewpointF,PressureIn,WindDirection,WindDirectionDegrees,WindSpeedMPH,WindSpeedGustMPH,Humidity,HourlyPrecipIn,Conditions,Clouds,dailyrainin,SoftwareType,DateUTC
2013-10-01 00:01:00,50.2,48.5,29.95,SE,140,1.0,2.0,94,0.00,,FEW250,0.00,VWS V14.01,2013-10-01 04:01:00,
2013-10-01 00:06:00,50.1,48.4,29.95,SE,140,0.0,2.0,94,0.00,,FEW250,0.00,VWS V14.01,2013-10-01 04:06:00,
2013-10-01 00:11:00,50.1,48.4,29.95,SE,140,0.0,2.0,94,0.00,,FEW250,0.00,VWS V14.01,2013-10-01 04:11:00,
2013-10-01 00:16:00,50.1,48.4,29.94,SE,140,0.0,2.0,94,0.00,,FEW250,0.00,VWS V14.01,2013-10-01 04:16:00,
2013-10-01 00:21:00,50.0,48.3,29.94,SE,140,0.0,2.0,94,0.00,,FEW250,0.00,VWS V14.01,2013-10-01 04:21:00,
2013-10-01 00:26:00,50.0,48.3,29.94,SE,140,0.0,2.0,94,0.00,,FEW250,0.00,VWS V14.01,2013-10-01 04:26:00,
2013-10-01 00:31:00,50.0,48.3,29.94,SE,140,0.0,0.0,94,0.00,,FEW250,0.00,VWS V14.01,2013-10-01 04:31:00,
2013-10-01 00:36:00,50.1,48.4,29.94,SE,140,0.0,0.0,94,0.00,,FEW250,0.00,VWS V14.01,2013-10-01 04:36:00,
2013-10-01 00:41:00,49.9,48.2,29.93,SE,140,0.0,0.0,94,0.00,,FEW250,0.00,VWS V14.01,2013-10-01 04:41:00,
2013-10-01 00:46:00,49.7,48.0,29.93,SE,140,0.0,2.0,94,0.00,,FEW250,0.00,VWS V14.01,2013-10-01 04:46:00,
2013-10-01 00:51:00,49.6,48.0,29.93,SE,140,0.0,2.0,94,0.00,,FEW250,0.00,VWS V14.01,2013-10-01 04:51:00,
2013-10-01 00:56:00,49.5,47.8,29.93,SE,140,0.0,2.0,94,0.00,,FEW250,0.00,VWS V14.01,2013-10-01 04:56:00,
2013-10-01 01:01:00,49.6,48.0,29.93,SE,140,0.0,0.0,94,0.00,,FEW250,0.00,VWS V14.01,2013-10-01 05:01:00,
2013-10-01 01:06:00,49.8,48.2,29.93,SE,140,0.0,0.0,94,0.00,,FEW250,0.00,VWS V14.01,2013-10-01 05:06:00,
2013-10-01 01:11:00,49.8,48.2,29.93,SE,140,0.0,0.0,94,0.00,,FEW250,0.00,VWS V14.01,2013-10-01 05:11:00,
2013-10-01 01:16:00,49.7,48.0,29.93,SE,140,0.0,0.0,94,0.00,,FEW250,0.00,VWS V14.01,2013-10-01 05:16:00,
2013-10-01 01:21:00,49.6,48.0,29.93,SE,140,0.0,0.0,94,0.00,,FEW250,0.00,VWS V14.01,2013-10-01 05:21:00,
2013-10-01 01:26:00,49.4,47.8,29.93,SE,140,0.0,0.0,94,0.00,,FEW250,0.00,VWS V14.01,2013-10-01 05:26:00,
2013-10-01 01:31:00,49.3,47.7,29.93,SE,140,0.0,0.0,94,0.00,,FEW250,0.00,VWS V14.01,2013-10-01 05:31:00,
2013-10-01 01:36:00,49.1,47.5,29.93,SE,140,0.0,0.0,94,0.00,,FEW250,0.00,VWS V14.01,2013-10-01 05:36:00,
2013-10-01 01:41:00,49.0,47.3,29.93,SE,140,0.0,0.0,94,0.00,,FEW250,0.00,VWS V14.01,2013-10-01 05:41:00,
2013-10-01 01:46:00,49.0,47.3,29.93,SE,140,0.0,0.0,94,0.00,,FEW250,0.00,VWS V14.01,2013-10-01 05:46:00,
2013-10-01 01:51:00,48.9,47.2,29.93,SE,140,0.0,0.0,94,0.00,,FEW250,0.00,VWS V14.01,2013-10-01 05:51:00,
2013-10-01 01:56:00,48.8,47.2,29.93,SE,140,0.0,0.0,94,0.00,,FEW250,0.00,VWS V14.01,2013-10-01 05:56:00,
2013-10-01 02:01:00,48.7,47.0,29.92,SE,140,2.0,2.0,94,0.00,,FEW250,0.00,VWS V14.01,2013-10-01 06:01:00,
2013-10-01 02:06:00,48.7,47.0,29.92,SE,140,0.0,2.0,94,0.00,,FEW250,0.00,VWS V14.01,2013-10-01 06:06:00,
2013-10-01 02:11:00,48.6,47.0,29.92,SE,140,0.0,2.0,94,0.00,,FEW250,0.00,VWS V14.01,2013-10-01 06:11:00,
2013-10-01 02:16:00,48.6,47.0,29.92,SE,140,2.0,2.0,94,0.00,,FEW250,0.00,VWS V14.01,2013-10-01 06:16:00,
2013-10-01 02:21:00,48.8,47.4,29.91,SE,140,1.0,5.0,95,0.00,,FEW250,0.00,VWS V14.01,2013-10-01 06:21:00,
2013-10-01 02:26:00,48.9,47.2,29.91,SE,140,0.0,5.0,94,0.00,,FEW250,0.00,VWS V14.01,2013-10-01 06:26:00,
2013-10-01 02:31:00,48.9,47.2,29.91,SSE,150,4.0,5.0,94,0.00,,FEW250,0.00,VWS V14.01,2013-10-01 06:31:00,
2013-10-01 02:36:00,48.9,47.5,29.91,SSE,155,0.0,5.0,95,0.00,,FEW250,0.00,VWS V14.01,2013-10-01 06:36:00,
2013-10-01 02:41:00,48.9,47.2,29.91,SSE,155,0.0,5.0,94,0.00,,FEW250,0.00,VWS V14.01,2013-10-01 06:41:00,
2013-10-01 02:46:00,48.9,47.5,29.91,SSE,155,0.0,5.0,95,0.00,,FEW250,0.00,VWS V14.01,2013-10-01 06:46:00,
2013-10-01 02:51:00,49.0,47.6,29.91,SSE,155,0.0,5.0,95,0.00,,FEW250,0.00,VWS V14.01,2013-10-01 06:51:00,
2013-10-01 02:56:00,49.0,47.6,29.91,SSE,155,0.0,5.0,95,0.00,,FEW250,0.00,VWS V14.01,2013-10-01 06:56:00,
2013-10-01 03:01:00,48.8,47.2,29.91,SSE,155,0.0,0.0,94,0.00,,CLR,0.00,VWS V14.01,2013-10-01 07:01:00,
2013-10-01 03:06:00,48.6,47.2,29.91,SSE,155,0.0,0.0,95,0.00,,CLR,0.00,VWS V14.01,2013-10-01 07:06:00,
2013-10-01 03:11:00,48.5,46.9,29.91,SSE,155,0.0,0.0,94,0.00,,CLR,0.00,VWS V14.01,2013-10-01 07:11:00,
2013-10-01 03:17:00,48.4,46.8,29.91,SSE,155,0.0,0.0,94,0.00,,CLR,0.00,VWS V14.01,2013-10-01 07:17:00,
2013-10-01 03:22:00,48.3,46.7,29.91,SSE,155,0.0,0.0,94,0.00,,CLR,0.00,VWS V14.01,2013-10-01 07:22:00,
2013-10-01 03:27:00,48.2,46.6,29.91,SSE,155,0.0,0.0,94,0.00,,CLR,0.00,VWS V14.01,2013-10-01 07:27:00,
2013-10-01 03:32:00,48.1,46.5,29.91,SSE,155,0.0,0.0,94,0.00,,CLR,0.00,VWS V14.01,2013-10-01 07:32:00,
2013-10-01 03:36:00,48.0,46.4,29.91,SSE,155,0.0,0.0,94,0.00,,CLR,0.00,VWS V14.01,2013-10-01 07:36:00,
2013-10-01 03:41:00,48.0,46.6,29.90,SSE,155,0.0,0.0,95,0.00,,CLR,0.00,VWS V14.01,2013-10-01 07:41:00,
2013-10-01 03:47:00,48.1,46.7,29.90,SSE,155,0.0,0.0,95,0.00,,CLR,0.00,VWS V14.01,2013-10-01 07:47:00,
2013-10-01 03:52:00,48.1,46.7,29.90,SSE,155,0.0,0.0,95,0.00,,CLR,0.00,VWS V14.01,2013-10-01 07:52:00,
2013-10-01 03:57:00,48.1,46.7,29.90,SSE,155,0.0,0.0,95,0.00,,CLR,0.00,VWS V14.01,2013-10-01 07:57:00,
2013-10-01 04:02:00,48.1,46.7,29.90,SSE,155,0.0,0.0,95,0.00,,CLR,0.00,VWS V14.01,2013-10-01 08:02:00,
2013-10-01 04:07:00,48.2,46.8,29.90,SSE,155,0.0,1.0,95,0.00,,CLR,0.00,VWS V14.01,2013-10-01 08:07:00,
2013-10-01 04:12:00,48.3,46.9,29.91,SSE,155,0.0,4.0,95,0.00,,CLR,0.00,VWS V14.01,2013-10-01 08:12:00,
2013-10-01 04:17:00,48.3,46.9,29.91,SSE,155,0.0,4.0,95,0.00,,CLR,0.00,VWS V14.01,2013-10-01 08:17:00,
2013-10-01 04:22:00,48.3,46.9,29.90,SSE,155,0.0,4.0,95,0.00,,CLR,0.00,VWS V14.01,2013-10-01 08:22:00,
2013-10-01 04:27:00,48.3,46.9,29.91,SSE,155,0.0,4.0,95,0.00,,CLR,0.00,VWS V14.01,2013-10-01 08:27:00,
2013-10-01 04:32:00,48.4,47.0,29.91,SSE,155,0.0,0.0,95,0.00,,CLR,0.00,VWS V14.01,2013-10-01 08:32:00,
2013-10-01 04:37:00,48.4,47.0,29.91,SSE,155,0.0,0.0,95,0.00,,CLR,0.00,VWS V14.01,2013-10-01 08:37:00,
2013-10-01 04:42:00,48.3,46.9,29.91,SSE,155,0.0,0.0,95,0.00,,CLR,0.00,VWS V14.01,2013-10-01 08:42:00,
2013-10-01 04:47:00,48.3,46.9,29.91,SSE,155,0.0,1.0,95,0.00,,CLR,0.00,VWS V14.01,2013-10-01 08:47:00,
2013-10-01 04:52:00,48.4,47.0,29.90,SSE,156,0.0,4.0,95,0.00,,CLR,0.00,VWS V14.01,2013-10-01 08:52:00,
2013-10-01 04:57:00,48.5,47.1,29.90,SSE,156,0.0,4.0,95,0.00,,CLR,0.00,VWS V14.01,2013-10-01 08:57:00,
2013-10-01 05:02:00,48.6,47.2,29.90,SSE,156,0.0,1.0,95,0.00,,CLR,0.00,VWS V14.01,2013-10-01 09:02:00,
2013-10-01 05:07:00,48.6,47.2,29.91,SSE,156,0.0,1.0,95,0.00,,CLR,0.00,VWS V14.01,2013-10-01 09:07:00,
2013-10-01 05:12:00,48.7,47.3,29.91,SSE,156,0.0,1.0,95,0.00,,CLR,0.00,VWS V14.01,2013-10-01 09:12:00,
2013-10-01 05:17:00,48.7,47.3,29.91,SSE,156,0.0,1.0,95,0.00,,CLR,0.00,VWS V14.01,2013-10-01 09:17:00,
2013-10-01 05:22:00,48.8,47.4,29.90,SSE,156,0.0,1.0,95,0.00,,CLR,0.00,VWS V14.01,2013-10-01 09:22:00,
2013-10-01 05:27:00,48.8,47.4,29.91,SSE,156,0.0,1.0,95,0.00,,CLR,0.00,VWS V14.01,2013-10-01 09:27:00,
2013-10-01 05:32:00,48.9,47.5,29.91,SSE,156,0.0,0.0,95,0.00,,CLR,0.00,VWS V14.01,2013-10-01 09:32:00,
2013-10-01 05:37:00,48.9,47.5,29.91,SSE,156,0.0,0.0,95,0.00,,CLR,0.00,VWS V14.01,2013-10-01 09:37:00,
2013-10-01 05:42:00,48.9,47.5,29.91,SSE,156,0.0,0.0,95,0.00,,CLR,0.00,VWS V14.01,2013-10-01 09:42:00,
2013-10-01 05:47:00,48.8,47.4,29.91,SSE,156,0.0,0.0,95,0.00,,CLR,0.00,VWS V14.01,2013-10-01 09:47:00,
2013-10-01 05:52:00,48.7,47.3,29.91,SSE,156,0.0,0.0,95,0.00,,CLR,0.00,VWS V14.01,2013-10-01 09:52:00,
2013-10-01 05:57:00,48.6,47.2,29.91,SSE,156,0.0,0.0,95,0.00,,CLR,0.00,VWS V14.01,2013-10-01 09:57:00,
2013-10-01 06:02:00,48.7,47.3,29.91,SSE,156,0.0,0.0,95,0.00,,CLR,0.00,VWS V14.01,2013-10-01 10:02:00,
2013-10-01 06:07:00,48.7,47.3,29.91,SSE,156,0.0,1.0,95,0.00,,CLR,0.00,VWS V14.01,2013-10-01 10:07:00,
2013-10-01 06:12:00,48.8,47.4,29.92,SSE,156,0.0,1.0,95,0.00,,CLR,0.00,VWS V14.01,2013-10-01 10:12:00,
2013-10-01 06:17:00,48.8,47.4,29.92,SSE,156,0.0,1.0,95,0.00,,CLR,0.00,VWS V14.01,2013-10-01 10:17:00,
2013-10-01 06:22:00,48.8,47.4,29.92,SSE,156,0.0,1.0,95,0.00,,CLR,0.00,VWS V14.01,2013-10-01 10:22:00,
2013-10-01 06:27:00,48.7,47.3,29.91,SSE,156,0.0,2.0,95,0.00,,CLR,0.00,VWS V14.01,2013-10-01 10:27:00,
2013-10-01 06:32:00,48.6,47.2,29.92,SSE,156,0.0,0.0,95,0.00,,CLR,0.00,VWS V14.01,2013-10-01 10:32:00,
2013-10-01 06:37:00,48.6,47.2,29.92,SSE,156,0.0,0.0,95,0.00,,CLR,0.00,VWS V14.01,2013-10-01 10:37:00,
2013-10-01 06:42:00,48.6,47.2,29.92,SSE,156,0.0,0.0,95,0.00,,CLR,0.00,VWS V14.01,2013-10-01 10:42:00,
2013-10-01 06:47:00,48.5,47.1,29.92,SSE,156,0.0,0.0,95,0.00,,CLR,0.00,VWS V14.01,2013-10-01 10:47:00,
2013-10-01 06:52:00,48.3,46.9,29.92,SSE,156,0.0,0.0,95,0.00,,CLR,0.00,VWS V14.01,2013-10-01 10:52:00,
2013-10-01 06:57:00,48.3,46.9,29.93,SSE,156,0.0,1.0,95,0.00,,CLR,0.00,VWS V14.01,2013-10-01 10:57:00,
2013-10-01 07:02:00,48.2,46.8,29.92,SSE,159,0.0,2.0,95,0.00,,SCT250,0.00,VWS V14.01,2013-10-01 11:02:00,
2013-10-01 07:07:00,48.2,46.8,29.93,SSE,158,0.0,2.0,95,0.00,,SCT250,0.00,VWS V14.01,2013-10-01 11:07:00,
2013-10-01 07:12:00,48.2,46.8,29.92,SSE,159,0.0,2.0,95,0.00,,SCT250,0.00,VWS V14.01,2013-10-01 11:12:00,
2013-10-01 07:17:00,48.3,46.9,29.93,SSE,159,0.0,2.0,95,0.00,,SCT250,0.00,VWS V14.01,2013-10-01 11:17:00,
2013-10-01 07:22:00,48.5,47.1,29.93,SSE,159,0.0,2.0,95,0.00,,SCT250,0.00,VWS V14.01,2013-10-01 11:22:00,
2013-10-01 07:27:00,49.0,47.6,29.93,SSE,159,0.0,2.0,95,0.00,,SCT250,0.00,VWS V14.01,2013-10-01 11:27:00,
2013-10-01 07:32:00,49.3,47.9,29.93,SSE,159,0.0,0.0,95,0.00,,SCT250,0.00,VWS V14.01,2013-10-01 11:32:00,
2013-10-01 07:37:00,49.7,48.6,29.93,SSE,159,0.0,0.0,96,0.00,,SCT250,0.00,VWS V14.01,2013-10-01 11:37:00,
2013-10-01 07:42:00,50.4,49.3,29.93,SSE,159,0.0,0.0,96,0.00,,SCT250,0.00,VWS V14.01,2013-10-01 11:42:00,
2013-10-01 07:47:00,50.7,49.3,29.93,SSE,159,0.0,2.0,95,0.00,,SCT250,0.00,VWS V14.01,2013-10-01 11:47:00,
2013-10-01 07:52:00,51.3,50.2,29.93,SSE,159,0.0,2.0,96,0.00,,SCT250,0.00,VWS V14.01,2013-10-01 11:52:00,
2013-10-01 07:57:00,51.8,50.7,29.93,SSE,159,0.0,2.0,96,0.00,,SCT250,0.00,VWS V14.01,2013-10-01 11:57:00,
2013-10-01 08:02:00,52.3,51.2,29.93,SSE,159,0.0,2.0,96,0.00,,SCT250,0.00,VWS V14.01,2013-10-01 12:02:00,
2013-10-01 08:07:00,52.7,51.6,29.93,SSE,159,0.0,2.0,96,0.00,,SCT250,0.00,VWS V14.01,2013-10-01 12:07:00,
2013-10-01 08:12:00,53.3,52.2,29.93,SSE,159,0.0,2.0,96,0.00,,SCT250,0.00,VWS V14.01,2013-10-01 12:12:00,
2013-10-01 08:17:00,53.8,52.7,29.93,SSE,159,0.0,2.0,96,0.00,,SCT250,0.00,VWS V14.01,2013-10-01 12:17:00,
2013-10-01 08:22:00,54.4,53.3,29.93,SSE,159,0.0,2.0,96,0.00,,SCT250,0.00,VWS V14.01,2013-10-01 12:22:00,
2013-10-01 08:27:00,54.8,53.4,29.93,SSE,159,0.0,2.0,95,0.00,,SCT250,0.00,VWS V14.01,2013-10-01 12:27:00,
2013-10-01 08:32:00,55.5,54.1,29.93,SSE,159,0.0,0.0,95,0.00,,SCT250,0.00,VWS V14.01,2013-10-01 12:32:00,
2013-10-01 08:37:00,56.2,54.8,29.93,SSE,159,0.0,2.0,95,0.00,,SCT250,0.00,VWS V14.01,2013-10-01 12:37:00,
2013-10-01 08:42:00,56.9,54.9,29.93,SSE,159,0.0,5.0,93,0.00,,SCT250,0.00,VWS V14.01,2013-10-01 12:42:00,
2013-10-01 08:47:00,57.5,54.9,29.93,SSE,159,0.0,5.0,91,0.00,,SCT250,0.00,VWS V14.01,2013-10-01 12:47:00,
2013-10-01 08:52:00,58.2,55.0,29.93,SSE,159,0.0,5.0,89,0.00,,SCT250,0.00,VWS V14.01,2013-10-01 12:52:00,
2013-10-01 08:57:00,58.9,54.7,29.93,SSE,159,0.0,5.0,86,0.00,,SCT250,0.00,VWS V14.01,2013-10-01 12:57:00,
2013-10-01 09:03:00,59.5,54.7,29.93,SSE,159,0.0,5.0,84,0.00,,SCT250,0.00,VWS V14.01,2013-10-01 13:03:00,
2013-10-01 09:08:00,60.2,55.0,29.93,SSE,159,0.0,5.0,83,0.00,,SCT250,0.00,VWS V14.01,2013-10-01 13:08:00,
2013-10-01 09:13:00,60.8,54.9,29.93,SSW,200,0.0,5.0,81,0.00,,SCT250,0.00,VWS V14.01,2013-10-01 13:13:00,
2013-10-01 09:18:00,61.3,55.1,29.93,SSW,207,3.0,5.0,80,0.00,,SCT250,0.00,VWS V14.01,2013-10-01 13:18:00,
2013-10-01 09:23:00,61.9,55.0,29.93,SSW,207,3.0,5.0,78,0.00,,SCT250,0.00,VWS V14.01,2013-10-01 13:23:00,
2013-10-01 09:28:00,62.3,55.0,29.93,SW,219,2.0,5.0,77,0.00,,SCT250,0.00,VWS V14.01,2013-10-01 13:28:00,
2013-10-01 09:33:00,62.6,54.6,29.92,NNW,342,0.0,4.0,75,0.00,,SCT250,0.00,VWS V14.01,2013-10-01 13:33:00,
2013-10-01 09:38:00,63.1,54.7,29.92,WNW,293,0.0,5.0,74,0.00,,SCT250,0.00,VWS V14.01,2013-10-01 13:38:00,
2013-10-01 09:43:00,63.5,53.9,29.92,North,355,4.0,7.0,71,0.00,,SCT250,0.00,VWS V14.01,2013-10-01 13:43:00,
2013-10-01 09:48:00,63.6,54.0,29.92,NNW,343,4.0,7.0,71,0.00,,SCT250,0.00,VWS V14.01,2013-10-01 13:48:00,
2013-10-01 09:53:00,64.2,54.6,29.93,NNW,340,4.0,7.0,71,0.00,,SCT250,0.00,VWS V14.01,2013-10-01 13:53:00,
2013-10-01 09:58:00,64.8,54.4,29.92,NNW,342,1.0,7.0,69,0.00,,SCT250,0.00,VWS V14.01,2013-10-01 13:58:00,
2013-10-01 10:03:00,65.3,54.9,29.92,NW,323,1.0,5.0,69,0.00,,SCT250,0.00,VWS V14.01,2013-10-01 14:03:00,
2013-10-01 10:08:00,65.6,55.2,29.92,West,281,2.0,6.0,69,0.00,,SCT250,0.00,VWS V14.01,2013-10-01 14:08:00,
2013-10-01 10:13:00,65.7,55.7,29.92,North,355,6.0,7.0,70,0.00,,SCT250,0.00,VWS V14.01,2013-10-01 14:13:00,
2013-10-01 10:18:00,65.6,55.2,29.92,West,281,1.0,8.0,69,0.00,,SCT250,0.00,VWS V14.01,2013-10-01 14:18:00,
2013-10-01 10:23:00,65.8,55.0,29.92,NNE,25,6.0,8.0,68,0.00,,SCT250,0.00,VWS V14.01,2013-10-01 14:23:00,
2013-10-01 10:28:00,65.9,55.5,29.91,NNE,12,5.0,8.0,69,0.00,,SCT250,0.00,VWS V14.01,2013-10-01 14:28:00,
2013-10-01 10:33:00,66.3,55.4,29.91,WNW,284,4.0,7.0,68,0.00,,SCT250,0.00,VWS V14.01,2013-10-01 14:33:00,
2013-10-01 10:38:00,66.7,55.8,29.91,NW,306,2.0,7.0,68,0.00,,SCT250,0.00,VWS V14.01,2013-10-01 14:38:00,
2013-10-01 10:43:00,67.2,55.5,29.91,WNW,300,4.0,7.0,66,0.00,,SCT250,0.00,VWS V14.01,2013-10-01 14:43:00,
2013-10-01 10:48:00,67.6,55.8,29.90,WNW,300,4.0,7.0,66,0.00,,SCT250,0.00,VWS V14.01,2013-10-01 14:48:00,
2013-10-01 10:53:00,68.0,55.8,29.90,West,275,4.0,7.0,65,0.00,,SCT250,0.00,VWS V14.01,2013-10-01 14:53:00,
2013-10-01 10:58:00,68.2,55.6,29.90,West,262,1.0,7.0,64,0.00,,SCT250,0.00,VWS V14.01,2013-10-01 14:58:00,
2013-10-01 11:03:00,68.7,55.6,29.90,North,350,1.0,4.0,63,0.00,,SCT250,0.00,VWS V14.01,2013-10-01 15:03:00,
2013-10-01 11:08:00,69.1,55.5,29.90,West,273,6.0,7.0,62,0.00,,SCT250,0.00,VWS V14.01,2013-10-01 15:08:00,
2013-10-01 11:13:00,69.5,55.5,29.90,West,276,1.0,7.0,61,0.00,,SCT250,0.00,VWS V14.01,2013-10-01 15:13:00,
2013-10-01 11:18:00,70.3,55.8,29.90,NW,313,4.0,7.0,60,0.00,,SCT250,0.00,VWS V14.01,2013-10-01 15:18:00,
2013-10-01 11:23:00,70.5,55.5,29.90,North,355,8.0,8.0,59,0.00,,SCT250,0.00,VWS V14.01,2013-10-01 15:23:00,
2013-10-01 11:28:00,70.3,55.3,29.90,North,5,1.0,8.0,59,0.00,,SCT250,0.00,VWS V14.01,2013-10-01 15:28:00,
2013-10-01 11:33:00,70.8,55.8,29.90,West,281,1.0,6.0,59,0.00,,SCT250,0.00,VWS V14.01,2013-10-01 15:33:00,
2013-10-01 11:38:00,71.3,55.3,29.89,North,9,0.0,7.0,57,0.00,,SCT250,0.00,VWS V14.01,2013-10-01 15:38:00,
2013-10-01 11:43:00,71.3,54.8,29.89,NNE,19,3.0,9.0,56,0.00,,SCT250,0.00,VWS V14.01,2013-10-01 15:43:00,
2013-10-01 11:48:00,71.3,54.8,29.89,NNW,341,5.0,9.0,56,0.00,,SCT250,0.00,VWS V14.01,2013-10-01 15:48:00,
2013-10-01 11:53:00,71.1,54.6,29.89,NNE,17,1.0,11.0,56,0.00,,SCT250,0.00,VWS V14.01,2013-10-01 15:53:00,
2013-10-01 11:58:00,71.6,54.6,29.89,NE,42,9.0,13.0,55,0.00,,SCT250,0.00,VWS V14.01,2013-10-01 15:58:00,
2013-10-01 12:03:00,71.6,53.6,29.89,North,350,1.0,6.0,53,0.00,,SCT250,0.00,VWS V14.01,2013-10-01 16:03:00,
2013-10-01 12:08:00,72.0,54.0,29.89,NW,325,6.0,7.0,53,0.00,,SCT250,0.00,VWS V14.01,2013-10-01 16:08:00,
2013-10-01 12:13:00,72.4,54.3,29.88,NNE,22,5.0,9.0,53,0.00,,FEW250,0.00,VWS V14.01,2013-10-01 16:13:00,
2013-10-01 12:18:00,72.3,54.2,29.88,NNE,23,2.0,10.0,53,0.00,,FEW250,0.00,VWS V14.01,2013-10-01 16:18:00,
2013-10-01 12:23:00,73.0,54.9,29.88,NE,44,4.0,10.0,53,0.00,,FEW250,0.00,VWS V14.01,2013-10-01 16:23:00,
2013-10-01 12:28:00,72.7,53.5,29.88,NNE,17,0.0,14.0,51,0.00,,FEW250,0.00,VWS V14.01,2013-10-01 16:28:00,
2013-10-01 12:32:00,73.0,53.8,29.88,North,5,7.0,9.0,51,0.00,,FEW250,0.00,VWS V14.01,2013-10-01 16:32:00,
2013-10-01 12:36:00,73.3,53.6,29.88,NW,314,2.0,9.0,50,0.00,,FEW250,0.00,VWS V14.01,2013-10-01 16:36:00,
2013-10-01 12:41:00,73.3,53.0,29.87,NE,40,4.0,9.0,49,0.00,,FEW250,0.00,VWS V14.01,2013-10-01 16:41:00,
2013-10-01 12:46:00,73.3,53.6,29.87,West,271,2.0,9.0,50,0.00,,FEW250,0.00,VWS V14.01,2013-10-01 16:46:00,
2013-10-01 12:51:00,74.2,53.3,29.87,WNW,302,1.0,9.0,48,0.00,,FEW250,0.00,VWS V14.01,2013-10-01 16:51:00,
2013-10-01 12:56:00,74.8,53.8,29.87,North,5,6.0,9.0,48,0.00,,FEW250,0.00,VWS V14.01,2013-10-01 16:56:00,
2013-10-01 13:01:00,74.5,53.0,29.86,NW,321,0.0,5.0,47,0.00,,FEW250,0.00,VWS V14.01,2013-10-01 17:01:00,
2013-10-01 13:06:00,74.4,54.0,29.86,NNW,331,4.0,7.0,49,0.00,,FEW250,0.00,VWS V14.01,2013-10-01 17:06:00,
2013-10-01 13:11:00,74.5,53.0,29.86,North,355,6.0,11.0,47,0.00,,FEW250,0.00,VWS V14.01,2013-10-01 17:11:00,
2013-10-01 13:17:00,74.1,52.6,29.86,NNE,12,4.0,11.0,47,0.00,,FEW250,0.00,VWS V14.01,2013-10-01 17:17:00,
2013-10-01 13:22:00,74.0,53.1,29.86,North,355,1.0,11.0,48,0.00,,FEW250,0.00,VWS V14.01,2013-10-01 17:22:00,
2013-10-01 13:27:00,74.1,53.2,29.85,NNE,13,6.0,11.0,48,0.00,,FEW250,0.00,VWS V14.01,2013-10-01 17:27:00,
2013-10-01 13:32:00,74.0,52.5,29.85,NE,53,2.0,7.0,47,0.00,,FEW250,0.00,VWS V14.01,2013-10-01 17:32:00,
2013-10-01 13:37:00,74.0,53.7,29.85,NE,38,0.0,7.0,49,0.00,,FEW250,0.00,VWS V14.01,2013-10-01 17:37:00,
2013-10-01 13:42:00,74.3,53.4,29.85,WNW,296,4.0,8.0,48,0.00,,FEW250,0.00,VWS V14.01,2013-10-01 17:42:00,
2013-10-01 13:47:00,74.9,53.3,29.85,WNW,292,4.0,8.0,47,0.00,,FEW250,0.00,VWS V14.01,2013-10-01 17:47:00,
2013-10-01 13:52:00,75.2,53.6,29.85,North,9,1.0,11.0,47,0.00,,FEW250,0.00,VWS V14.01,2013-10-01 17:52:00,
2013-10-01 13:57:00,75.1,52.9,29.85,NNE,18,2.0,11.0,46,0.00,,FEW250,0.00,VWS V14.01,2013-10-01 17:57:00,
2013-10-01 14:02:00,75.2,53.0,29.84,NNW,330,1.0,5.0,46,0.00,,FEW250,0.00,VWS V14.01,2013-10-01 18:02:00,
2013-10-01 14:07:00,75.3,53.1,29.84,North,355,7.0,8.0,46,0.00,,FEW250,0.00,VWS V14.01,2013-10-01 18:07:00,
2013-10-01 14:12:00,75.4,53.2,29.84,North,9,1.0,8.0,46,0.00,,FEW250,0.00,VWS V14.01,2013-10-01 18:12:00,
2013-10-01 14:17:00,74.9,53.3,29.84,NE,51,0.0,8.0,47,0.00,,FEW250,0.00,VWS V14.01,2013-10-01 18:17:00,
2013-10-01 14:22:00,75.2,54.2,29.84,NNW,333,4.0,8.0,48,0.00,,FEW250,0.00,VWS V14.01,2013-10-01 18:22:00,
2013-10-01 14:27:00,75.4,53.2,29.84,WNW,292,2.0,8.0,46,0.00,,FEW250,0.00,VWS V14.01,2013-10-01 18:27:00,
2013-10-01 14:32:00,75.6,54.0,29.84,SSW,213,4.0,4.0,47,0.00,,FEW250,0.00,VWS V14.01,2013-10-01 18:32:00,
2013-10-01 14:37:00,75.5,54.5,29.84,SSW,203,1.0,6.0,48,0.00,,FEW250,0.00,VWS V14.01,2013-10-01 18:37:00,
2013-10-01 14:42:00,75.2,55.3,29.84,SE,146,2.0,6.0,50,0.00,,FEW250,0.00,VWS V14.01,2013-10-01 18:42:00,
2013-10-01 14:47:00,74.4,55.7,29.83,SSE,147,4.0,8.0,52,0.00,,FEW250,0.00,VWS V14.01,2013-10-01 18:47:00,
2013-10-01 14:52:00,73.8,55.6,29.84,SE,145,0.0,8.0,53,0.00,,FEW250,0.00,VWS V14.01,2013-10-01 18:52:00,
2013-10-01 14:57:00,73.9,56.2,29.83,SE,146,2.0,8.0,54,0.00,,FEW250,0.00,VWS V14.01,2013-10-01 18:57:00,
2013-10-01 15:02:00,73.5,55.9,29.83,South,178,2.0,2.0,54,0.00,,FEW250,0.00,VWS V14.01,2013-10-01 19:02:00,
2013-10-01 15:07:00,73.5,55.3,29.83,South,176,2.0,5.0,53,0.00,,FEW250,0.00,VWS V14.01,2013-10-01 19:07:00,
2013-10-01 15:12:00,73.3,55.2,29.83,South,179,0.0,6.0,53,0.00,,FEW250,0.00,VWS V14.01,2013-10-01 19:12:00,
2013-10-01 15:17:00,73.1,55.0,29.83,South,186,3.0,6.0,53,0.00,,FEW250,0.00,VWS V14.01,2013-10-01 19:17:00,
2013-10-01 15:22:00,73.1,54.5,29.83,South,187,0.0,6.0,52,0.00,,FEW250,0.00,VWS V14.01,2013-10-01 19:22:00,
2013-10-01 15:27:00,73.2,54.5,29.83,South,174,2.0,6.0,52,0.00,,FEW250,0.00,VWS V14.01,2013-10-01 19:27:00,
2013-10-01 15:32:00,72.9,54.8,29.83,South,174,2.0,4.0,53,0.00,,FEW250,0.00,VWS V14.01,2013-10-01 19:32:00,
2013-10-01 15:37:00,72.8,54.7,29.83,South,175,7.0,7.0,53,0.00,,FEW250,0.00,VWS V14.01,2013-10-01 19:37:00,
2013-10-01 15:43:00,72.9,54.8,29.83,South,169,2.0,7.0,53,0.00,,FEW250,0.00,VWS V14.01,2013-10-01 19:43:00,
2013-10-01 15:48:00,72.6,54.5,29.83,SSE,160,1.0,7.0,53,0.00,,FEW250,0.00,VWS V14.01,2013-10-01 19:48:00,
2013-10-01 15:53:00,72.4,54.8,29.83,SSE,158,0.0,7.0,54,0.00,,FEW250,0.00,VWS V14.01,2013-10-01 19:53:00,
2013-10-01 15:58:00,72.2,54.7,29.83,South,175,1.0,8.0,54,0.00,,FEW250,0.00,VWS V14.01,2013-10-01 19:58:00,
2013-10-01 16:03:00,72.2,54.7,29.83,South,169,5.0,7.0,54,0.00,,FEW250,0.00,VWS V14.01,2013-10-01 20:03:00,
2013-10-01 16:08:00,71.7,55.2,29.83,SSE,154,4.0,10.0,56,0.00,,FEW250,0.00,VWS V14.01,2013-10-01 20:08:00,
2013-10-01 16:13:00,71.6,55.1,29.83,SSE,161,4.0,10.0,56,0.00,,FEW250,0.00,VWS V14.01,2013-10-01 20:13:00,
2013-10-01 16:18:00,71.5,55.5,29.83,SSE,159,0.0,10.0,57,0.00,,FEW250,0.00,VWS V14.01,2013-10-01 20:18:00,
2013-10-01 16:23:00,71.7,54.7,29.83,SSE,147,4.0,10.0,55,0.00,,FEW250,0.00,VWS V14.01,2013-10-01 20:23:00,
2013-10-01 16:28:00,71.5,55.0,29.83,SSE,147,0.0,10.0,56,0.00,,FEW250,0.00,VWS V14.01,2013-10-01 20:28:00,
2013-10-01 16:33:00,71.4,54.4,29.83,SSE,162,0.0,6.0,55,0.00,,FEW250,0.00,VWS V14.01,2013-10-01 20:33:00,
2013-10-01 16:38:00,71.4,54.4,29.83,SSE,161,1.0,6.0,55,0.00,,FEW250,0.00,VWS V14.01,2013-10-01 20:38:00,
2013-10-01 16:43:00,71.1,54.6,29.83,SSE,149,2.0,7.0,56,0.00,,FEW250,0.00,VWS V14.01,2013-10-01 20:43:00,
2013-10-01 16:48:00,70.8,54.3,29.83,SE,145,0.0,7.0,56,0.00,,FEW250,0.00,VWS V14.01,2013-10-01 20:48:00,
2013-10-01 16:53:00,70.4,53.5,29.83,SE,145,0.0,7.0,55,0.00,,FEW250,0.00,VWS V14.01,2013-10-01 20:53:00,
2013-10-01 16:58:00,69.8,53.4,29.83,East,96,4.0,7.0,56,0.00,,FEW250,0.00,VWS V14.01,2013-10-01 20:58:00,
2013-10-01 17:03:00,69.4,53.5,29.84,ESE,105,1.0,1.0,57,0.00,,FEW200,0.00,VWS V14.01,2013-10-01 21:03:00,
2013-10-01 17:08:00,69.0,53.2,29.84,SE,145,5.0,7.0,57,0.00,,FEW200,0.00,VWS V14.01,2013-10-01 21:08:00,
2013-10-01 17:13:00,68.7,53.3,29.84,SSE,147,2.0,7.0,58,0.00,,FEW200,0.00,VWS V14.01,2013-10-01 21:13:00,
2013-10-01 17:18:00,68.5,52.7,29.84,SE,143,0.0,7.0,57,0.00,,FEW200,0.00,VWS V14.01,2013-10-01 21:18:00,
2013-10-01 17:23:00,68.4,52.6,29.84,SE,140,2.0,7.0,57,0.00,,FEW200,0.00,VWS V14.01,2013-10-01 21:23:00,
2013-10-01 17:28:00,68.3,53.0,29.84,SE,140,1.0,7.0,58,0.00,,FEW200,0.00,VWS V14.01,2013-10-01 21:28:00,
2013-10-01 17:33:00,68.1,52.8,29.84,SSE,155,5.0,7.0,58,0.00,,FEW200,0.00,VWS V14.01,2013-10-01 21:33:00,
2013-10-01 17:38:00,67.9,52.6,29.83,SSE,155,1.0,7.0,58,0.00,,FEW200,0.00,VWS V14.01,2013-10-01 21:38:00,
2013-10-01 17:43:00,67.8,53.0,29.83,SSE,155,1.0,7.0,59,0.00,,FEW200,0.00,VWS V14.01,2013-10-01 21:43:00,
2013-10-01 17:48:00,67.7,53.3,29.84,SSE,155,2.0,7.0,60,0.00,,FEW200,0.00,VWS V14.01,2013-10-01 21:48:00,
2013-10-01 17:53:00,67.6,53.7,29.83,SSE,155,0.0,7.0,61,0.00,,FEW200,0.00,VWS V14.01,2013-10-01 21:53:00,
2013-10-01 17:58:00,67.4,53.5,29.84,SSE,155,0.0,7.0,61,0.00,,FEW200,0.00,VWS V14.01,2013-10-01 21:58:00,
2013-10-01 18:03:00,67.2,53.3,29.83,SSE,155,0.0,2.0,61,0.00,,FEW200,0.00,VWS V14.01,2013-10-01 22:03:00,
2013-10-01 18:08:00,66.9,52.6,29.84,SSE,155,2.0,4.0,60,0.00,,FEW200,0.00,VWS V14.01,2013-10-01 22:08:00,
2013-10-01 18:13:00,66.7,52.4,29.84,SSE,155,2.0,4.0,60,0.00,,FEW200,0.00,VWS V14.01,2013-10-01 22:13:00,
2013-10-01 18:18:00,66.5,52.7,29.84,SSE,155,2.0,4.0,61,0.00,,FEW200,0.00,VWS V14.01,2013-10-01 22:18:00,
2013-10-01 18:23:00,66.3,52.5,29.84,SSE,155,0.0,4.0,61,0.00,,FEW200,0.00,VWS V14.01,2013-10-01 22:23:00,
2013-10-01 18:28:00,66.1,52.3,29.84,SSE,155,0.0,4.0,61,0.00,,FEW200,0.00,VWS V14.01,2013-10-01 22:28:00,
2013-10-01 18:33:00,65.9,52.5,29.84,SSE,155,0.0,0.0,62,0.00,,FEW200,0.00,VWS V14.01,2013-10-01 22:33:00,
2013-10-01 18:38:00,65.7,52.8,29.84,SSE,155,0.0,0.0,63,0.00,,FEW200,0.00,VWS V14.01,2013-10-01 22:38:00,
2013-10-01 18:43:00,65.4,52.5,29.84,SSE,155,0.0,0.0,63,0.00,,FEW200,0.00,VWS V14.01,2013-10-01 22:43:00,
2013-10-01 18:49:00,65.1,52.6,29.84,SSE,155,0.0,0.0,64,0.00,,FEW200,0.00,VWS V14.01,2013-10-01 22:49:00,
2013-10-01 18:54:00,64.7,52.3,29.84,SSE,155,0.0,2.0,64,0.00,,FEW200,0.00,VWS V14.01,2013-10-01 22:54:00,
2013-10-01 18:59:00,64.6,52.2,29.84,SSE,155,0.0,5.0,64,0.00,,FEW200,0.00,VWS V14.01,2013-10-01 22:59:00,
2013-10-01 19:04:00,64.4,52.0,29.84,SSE,155,0.0,1.0,64,0.00,,SCT200,0.00,VWS V14.01,2013-10-01 23:04:00,
2013-10-01 19:09:00,64.3,51.9,29.84,SSE,155,0.0,1.0,64,0.00,,SCT200,0.00,VWS V14.01,2013-10-01 23:09:00,
2013-10-01 19:14:00,64.1,52.1,29.85,SSE,155,0.0,4.0,65,0.00,,SCT200,0.00,VWS V14.01,2013-10-01 23:14:00,
2013-10-01 19:19:00,64.0,52.4,29.85,SSE,155,0.0,4.0,66,0.00,,SCT200,0.00,VWS V14.01,2013-10-01 23:19:00,
2013-10-01 19:20:00,63.9,52.3,29.85,SSE,155,0.0,4.0,66,0.00,,SCT200,0.00,VWS V14.01,2013-10-01 23:20:00,
2013-10-01 19:25:00,63.8,52.7,29.85,SSE,155,0.0,4.0,67,0.00,,SCT200,0.00,VWS V14.01,2013-10-01 23:25:00,
2013-10-01 19:30:00,63.6,52.5,29.85,SSE,155,0.0,4.0,67,0.00,,SCT200,0.00,VWS V14.01,2013-10-01 23:30:00,
2013-10-01 19:35:00,63.4,52.3,29.85,SSE,155,0.0,0.0,67,0.00,,SCT200,0.00,VWS V14.01,2013-10-01 23:35:00,
2013-10-01 19:40:00,63.2,52.1,29.85,SSE,155,0.0,4.0,67,0.00,,SCT200,0.00,VWS V14.01,2013-10-01 23:40:00,
2013-10-01 19:45:00,63.1,52.4,29.85,SSE,155,0.0,4.0,68,0.00,,SCT200,0.00,VWS V14.01,2013-10-01 23:45:00,
2013-10-01 19:50:00,63.0,52.3,29.85,SSE,155,0.0,4.0,68,0.00,,SCT200,0.00,VWS V14.01,2013-10-01 23:50:00,
2013-10-01 19:55:00,63.0,52.3,29.86,SSE,155,0.0,4.0,68,0.00,,SCT200,0.00,VWS V14.01,2013-10-01 23:55:00,
2013-10-01 20:00:00,62.9,52.2,29.86,SSE,155,0.0,4.0,68,0.00,,FEW200,0.00,VWS V14.01,2013-10-02 00:00:00,
2013-10-01 20:05:00,62.9,52.6,29.86,SSE,155,0.0,0.0,69,0.00,,FEW200,0.00,VWS V14.01,2013-10-02 00:05:00,
2013-10-01 20:10:00,62.7,52.4,29.86,SSE,155,0.0,0.0,69,0.00,,FEW200,0.00,VWS V14.01,2013-10-02 00:10:00,
2013-10-01 20:15:00,62.6,52.3,29.86,SSE,155,0.0,0.0,69,0.00,,FEW200,0.00,VWS V14.01,2013-10-02 00:15:00,
2013-10-01 20:17:00,62.6,52.3,29.86,SSE,155,1.0,2.0,69,0.00,,FEW200,0.00,VWS V14.01,2013-10-02 00:17:00,
2013-10-01 20:22:00,62.7,52.0,29.86,SSE,155,0.0,2.0,68,0.00,,FEW200,0.00,VWS V14.01,2013-10-02 00:22:00,
2013-10-01 20:26:00,62.7,52.4,29.86,SSE,155,0.0,2.0,69,0.00,,FEW200,0.00,VWS V14.01,2013-10-02 00:26:00,
2013-10-01 20:31:00,62.6,52.3,29.86,SSE,155,0.0,0.0,69,0.00,,FEW200,0.00,VWS V14.01,2013-10-02 00:31:00,
2013-10-01 20:36:00,62.5,52.2,29.86,SSE,155,0.0,0.0,69,0.00,,FEW200,0.00,VWS V14.01,2013-10-02 00:36:00,
2013-10-01 20:41:00,62.3,52.4,29.86,SSE,155,0.0,0.0,70,0.00,,FEW200,0.00,VWS V14.01,2013-10-02 00:41:00,
2013-10-01 20:46:00,62.1,52.6,29.86,SSE,155,0.0,0.0,71,0.00,,FEW200,0.00,VWS V14.01,2013-10-02 00:46:00,
2013-10-01 20:51:00,62.0,52.5,29.86,SSE,155,0.0,0.0,71,0.00,,FEW200,0.00,VWS V14.01,2013-10-02 00:51:00,
2013-10-01 20:56:00,61.9,52.4,29.86,SSE,155,0.0,0.0,71,0.00,,FEW200,0.00,VWS V14.01,2013-10-02 00:56:00,
2013-10-01 21:01:00,61.7,52.6,29.86,SSE,155,0.0,0.0,72,0.00,,FEW200,0.00,VWS V14.01,2013-10-02 01:01:00,
2013-10-01 21:06:00,61.5,52.4,29.86,SSE,155,0.0,0.0,72,0.00,,FEW200,0.00,VWS V14.01,2013-10-02 01:06:00,
2013-10-01 21:11:00,61.4,52.7,29.86,SSE,155,0.0,0.0,73,0.00,,FEW200,0.00,VWS V14.01,2013-10-02 01:11:00,
2013-10-01 21:16:00,61.3,52.6,29.86,SSE,155,0.0,0.0,73,0.00,,FEW200,0.00,VWS V14.01,2013-10-02 01:16:00,
2013-10-01 21:21:00,61.1,52.8,29.86,SSE,155,0.0,0.0,74,0.00,,FEW200,0.00,VWS V14.01,2013-10-02 01:21:00,
2013-10-01 21:26:00,60.9,52.9,29.85,SSE,155,0.0,0.0,75,0.00,,FEW200,0.00,VWS V14.01,2013-10-02 01:26:00,
2013-10-01 21:31:00,60.7,52.7,29.86,SSE,155,0.0,0.0,75,0.00,,FEW200,0.00,VWS V14.01,2013-10-02 01:31:00,
2013-10-01 21:36:00,60.5,52.9,29.86,SSE,155,0.0,0.0,76,0.00,,FEW200,0.00,VWS V14.01,2013-10-02 01:36:00,
2013-10-01 21:41:00,60.3,52.7,29.86,SSE,155,0.0,0.0,76,0.00,,FEW200,0.00,VWS V14.01,2013-10-02 01:41:00,
2013-10-01 21:46:00,60.1,52.9,29.86,SSE,155,0.0,0.0,77,0.00,,FEW200,0.00,VWS V14.01,2013-10-02 01:46:00,
2013-10-01 21:51:00,59.9,52.7,29.86,SSE,155,0.0,0.0,77,0.00,,FEW200,0.00,VWS V14.01,2013-10-02 01:51:00,
2013-10-01 21:56:00,59.7,53.5,29.86,SSE,155,0.0,0.0,80,0.00,,FEW200,0.00,VWS V14.01,2013-10-02 01:56:00,
2013-10-01 22:01:00,59.5,52.6,29.86,SSE,155,0.0,0.0,78,0.00,,FEW200,0.00,VWS V14.01,2013-10-02 02:01:00,
2013-10-01 22:06:00,59.3,52.8,29.86,SSE,155,0.0,0.0,79,0.00,,FEW200,0.00,VWS V14.01,2013-10-02 02:06:00,
2013-10-01 22:11:00,59.2,52.7,29.86,SSE,155,0.0,0.0,79,0.00,,FEW200,0.00,VWS V14.01,2013-10-02 02:11:00,
2013-10-01 22:16:00,59.0,52.8,29.86,SSE,155,0.0,0.0,80,0.00,,FEW200,0.00,VWS V14.01,2013-10-02 02:16:00,
2013-10-01 22:21:00,58.8,52.7,29.86,SSE,155,0.0,0.0,80,0.00,,FEW200,0.00,VWS V14.01,2013-10-02 02:21:00,
2013-10-01 22:26:00,58.6,52.8,29.85,SSE,155,0.0,0.0,81,0.00,,FEW200,0.00,VWS V14.01,2013-10-02 02:26:00,
2013-10-01 22:31:00,58.4,52.6,29.85,SSE,155,0.0,0.0,81,0.00,,FEW200,0.00,VWS V14.01,2013-10-02 02:31:00,
2013-10-01 22:36:00,58.2,52.7,29.85,SSE,155,0.0,0.0,82,0.00,,FEW200,0.00,VWS V14.01,2013-10-02 02:36:00,
2013-10-01 22:41:00,58.1,52.6,29.85,SSE,155,0.0,0.0,82,0.00,,FEW200,0.00,VWS V14.01,2013-10-02 02:41:00,
2013-10-01 22:46:00,58.1,52.6,29.85,SSE,155,0.0,0.0,82,0.00,,FEW200,0.00,VWS V14.01,2013-10-02 02:46:00,
2013-10-01 22:51:00,58.0,52.5,29.85,SSE,155,0.0,0.0,82,0.00,,FEW200,0.00,VWS V14.01,2013-10-02 02:51:00,
2013-10-01 22:56:00,57.8,52.7,29.85,SSE,155,0.0,0.0,83,0.00,,FEW200,0.00,VWS V14.01,2013-10-02 02:56:00,
2013-10-01 23:01:00,57.7,52.6,29.85,SSE,155,0.0,0.0,83,0.00,,FEW200,0.00,VWS V14.01,2013-10-02 03:01:00,
2013-10-01 23:06:00,57.6,52.5,29.85,SSE,155,0.0,0.0,83,0.00,,FEW200,0.00,VWS V14.01,2013-10-02 03:06:00,
2013-10-01 23:11:00,57.5,52.4,29.85,SSE,155,0.0,0.0,83,0.00,,FEW200,0.00,VWS V14.01,2013-10-02 03:11:00,
2013-10-01 23:16:00,57.4,52.3,29.85,SSE,155,0.0,0.0,83,0.00,,FEW200,0.00,VWS V14.01,2013-10-02 03:16:00,
2013-10-01 23:21:00,57.3,52.5,29.85,SSE,155,0.0,0.0,84,0.00,,FEW200,0.00,VWS V14.01,2013-10-02 03:21:00,
2013-10-01 23:26:00,57.2,52.4,29.85,SSE,155,0.0,0.0,84,0.00,,FEW200,0.00,VWS V14.01,2013-10-02 03:26:00,
2013-10-01 23:31:00,57.1,52.3,29.85,SSE,155,0.0,0.0,84,0.00,,FEW200,0.00,VWS V14.01,2013-10-02 03:31:00,
2013-10-01 23:36:00,57.0,52.2,29.85,SSE,155,0.0,0.0,84,0.00,,FEW200,0.00,VWS V14.01,2013-10-02 03:36:00,
2013-10-01 23:41:00,56.9,52.4,29.85,SSE,155,0.0,0.0,85,0.00,,FEW200,0.00,VWS V14.01,2013-10-02 03:41:00,
2013-10-01 23:46:00,56.9,52.4,29.85,SSE,155,0.0,0.0,85,0.00,,FEW200,0.00,VWS V14.01,2013-10-02 03:46:00,
2013-10-01 23:51:00,56.9,52.4,29.85,SSE,155,0.0,0.0,85,0.00,,FEW200,0.00,VWS V14.01,2013-10-02 03:51:00,
2013-10-01 23:56:00,56.8,52.3,29.85,SSE,155,0.0,0.0,85,0.00,,FEW200,0.00,VWS V14.01,2013-10-02 03:56:00,